Content
SEND FEEDBACK

Daily
Averages
Monthly
Summary
United States of America

LEMMON, SOUTH DAKOTA


Home > North America > United States > South Dakota
Elevation: 2572 feet     Latitude: 45 55N     Longitude: 102 06W

WEATHER
 
SELECT A DAY
Number of Records: 192,044;   Date Range: 7/1/96 - 10/20/14
 
SHARE

PRINT THIS DATA

[ ← Previous Day ]
WEATHER ALMANAC - FEBRUARY 5, 2013
[ Next Day → ]
[ °C ]   °F
Weather ElementAverageHighLow
Temperature30.4 °F37 °F (3:53 pm)23 °F (6:53 am)
Dewpoint22.1 °F25 °F (1:53 am)19.9 °F (5:53 am)
Humidity72 %88 % (6:53 am)54 % (3:53 pm)
Barometer29.94 in30.04 in (10:53 am)29.85 in (1:53 am)
Wind Speed8.9 mph15 mph (2:53 am)
Weather ElementAverage
Visibility10 mi
Wind DirectionSSW (196.7 °)

Weather ElementTotal
Precipitation---
Heating Degree Days35 (Base 65)
Averaged from 21 records on February 5, 2013
WEATHER CONDITIONS BREAKOUT
WIND DIRECTION BREAKOUT
WEATHER BY HOUR - FEBRUARY 5, 2013
[ °C ]   °F
Local TimeTemperatureDewpointHumidityBarometerVisibilityWind DirectionWind SpeedGust SpeedPrecipitationEventsConditions
1:53 AM32.0 °F25.0 °F75 %29.85 in10.0 miWNW (300°)12.7 mphClear
2:53 AM30.0 °F23.0 °F75 %29.88 in10.0 miNW (310°)15.0 mphPartly Cloudy
3:53 AM28.9 °F21.9 °F75 %29.91 in10.0 miWNW (300°)15.0 mphPartly Cloudy
4:53 AM27.0 °F21.0 °F78 %29.94 in10.0 miWNW (290°)13.8 mphClear
5:53 AM24.1 °F19.9 °F84 %29.96 in10.0 miWNW (290°)9.2 mphClear
6:53 AM23.0 °F19.9 °F88 %29.99 in10.0 miWest (280°)11.5 mphClear
8:53 AM28.9 °F21.9 °F75 %30.01 in10.0 miWNW (290°)11.5 mphClear
9:53 AM30.0 °F21.9 °F72 %30.02 in10.0 miNW (310°)13.8 mphOvercast
10:53 AM30.9 °F21.9 °F69 %30.04 in10.0 miWest (270°)10.4 mphScattered Clouds
11:53 AM33.1 °F21.0 °F61 %30.02 in10.0 miWest (270°)10.4 mphClear
12:53 PM34.0 °F23.0 °F64 %29.99 in10.0 miWest (270°)6.9 mphOvercast
1:53 PM34.0 °F23.0 °F64 %29.96 in10.0 miCalmOvercast
2:53 PM36.0 °F21.9 °F57 %29.95 in10.0 miCalmOvercast
3:53 PM37.0 °F21.9 °F54 %29.93 in10.0 miCalmOvercast
4:53 PM33.1 °F23.0 °F66 %29.93 in10.0 miESE (120°)6.9 mphPartly Cloudy
5:53 PM30.0 °F21.9 °F72 %29.93 in10.0 miSE (130°)8.1 mphClear
6:53 PM28.9 °F21.9 °F75 %29.92 in10.0 miSE (130°)8.1 mphClear
7:53 PM28.0 °F21.9 °F78 %29.90 in10.0 miSE (140°)8.1 mphMostly Cloudy
8:53 PM28.9 °F21.9 °F75 %29.88 in10.0 miSE (140°)10.4 mphClear
9:53 PM30.0 °F23.0 °F75 %29.86 in10.0 miSSE (150°)11.5 mphOvercast
10:53 PM30.0 °F24.1 °F79 %29.85 in10.0 miSE (140°)4.6 mphOvercast
Hourly data recorded from KHEI, located miles away from Lemmon, South Dakota







STORIES FROM OUR PARTNERS